| time (UTC) | temp C | wind direction | speed KPH | gust KPH | rain 1hr cm | rain 24hr cm | rain mn cm | humidity % | barometer mb |
| 20260507050305 | 13 | 4 | 4.8 | 16.1 | 0.15 | 0.36 | 0.15 | 90 | 1011.7 |
| 20260507045806 | 13 | 281 | 4.8 | 16.1 | 0.13 | 0.33 | 0.13 | 89 | 1011.8 |
| 20260507044805 | 14 | 259 | 9.7 | 19.3 | 0.03 | 0.23 | 0.03 | 87 | 1011.8 |
| 20260507044305 | 14 | 275 | 1.6 | 11.3 | 0.00 | 0.20 | 0.00 | 87 | 1011.1 |
| 20260507042805 | 15 | 161 | 1.6 | 22.5 | 0.00 | 0.20 | 0.00 | 86 | 1011.2 |
| 20260507041305 | 15 | 281 | 6.4 | 22.5 | 0.00 | 0.20 | 0.00 | 85 | 1011.1 |
| 20260507040305 | 16 | 310 | 3.2 | 12.9 | 0.00 | 0.20 | 0.00 | 85 | 1010.7 |
| 20260507035804 | 16 | 284 | 1.6 | 4.8 | 0.00 | 0.20 | 0.20 | 85 | 1010.7 |
| 20260507035306 | 16 | 284 | 1.6 | 4.8 | 0.00 | 0.20 | 0.20 | 85 | 1010.7 |
| 20260507034804 | 16 | 284 | 3.2 | 12.9 | 0.00 | 0.20 | 0.20 | 84 | 1010.7 |
| 20260507034305 | 16 | 282 | 4.8 | 12.9 | 0.00 | 0.20 | 0.20 | 84 | 1010.9 |
| 20260507032806 | 16 | 302 | 3.2 | 14.5 | 0.00 | 0.20 | 0.20 | 86 | 1010.8 |
| 20260507025306 | 17 | 331 | 9.7 | 22.5 | 0.00 | 0.20 | 0.20 | 86 | 1010.4 |
| 20260507024805 | 17 | 272 | 1.6 | 11.3 | 0.00 | 0.20 | 0.20 | 87 | 1010.3 |
| 20260507023305 | 17 | 314 | 3.2 | 12.9 | 0.00 | 0.20 | 0.20 | 87 | 1010.0 |
| 20260507022306 | 18 | 349 | 4.8 | 12.9 | 0.00 | 0.20 | 0.20 | 88 | 1010.2 |
| 20260507021305 | 18 | 296 | 3.2 | 16.1 | 0.00 | 0.20 | 0.20 | 88 | 1010.2 |
| 20260507020805 | 18 | 269 | 3.2 | 16.1 | 0.00 | 0.20 | 0.20 | 88 | 1010.0 |
| 20260507020305 | 18 | 308 | 8.0 | 16.1 | 0.00 | 0.20 | 0.20 | 87 | 1010.0 |
| 20260507015804 | 18 | 314 | 3.2 | 16.1 | 0.00 | 0.20 | 0.20 | 87 | 1010.1 |
| 20260507013305 | 18 | 290 | 3.2 | 9.7 | 0.00 | 0.20 | 0.20 | 87 | 1010.4 |
| 20260507012306 | 18 | 256 | 4.8 | 12.9 | 0.00 | 0.20 | 0.20 | 87 | 1010.5 |
| 20260507011805 | 18 | 280 | 4.8 | 12.9 | 0.00 | 0.20 | 0.20 | 86 | 1010.6 |
| 20260507002805 | 19 | 154 | 3.2 | 9.7 | 0.00 | 0.20 | 0.20 | 84 | 1009.8 |
| 20260507001305 | 20 | 152 | 6.4 | 9.7 | 0.00 | 0.20 | 0.20 | 82 | 1009.6 |
| 20260507000306 | 20 | 158 | 3.2 | 9.7 | 0.00 | 0.20 | 0.20 | 82 | 1009.6 |
| 20260506235804 | 20 | 179 | 3.2 | 9.7 | 0.00 | 0.20 | 0.20 | 82 | 1009.6 |
| 20260506235306 | 20 | 158 | 4.8 | 9.7 | 0.00 | 0.20 | 0.20 | 82 | 1009.1 |
| 20260506233805 | 20 | 190 | 3.2 | 4.8 | 0.00 | 0.20 | 0.20 | 82 | 1009.1 |
| 20260506232805 | 20 | 175 | 4.8 | 8.0 | 0.00 | 0.20 | 0.20 | 82 | 1009.0 |
| 20260506231305 | 20 | 159 | 3.2 | 4.8 | 0.00 | 0.20 | 0.20 | 81 | 1009.0 |
| 20260506230805 | 20 | 233 | 1.6 | 4.8 | 0.00 | 0.20 | 0.20 | 81 | 1009.0 |
| 20260506230306 | 20 | 235 | 0.0 | 4.8 | 0.00 | 0.20 | 0.20 | 80 | 1009.0 |
| 20260506225306 | 20 | 167 | 1.6 | 9.7 | 0.00 | 0.20 | 0.20 | 81 | 1009.0 |
| 20260506224305 | 20 | 170 | 4.8 | 9.7 | 0.00 | 0.20 | 0.20 | 80 | 1009.0 |
| 20260506223304 | 20 | 201 | 4.8 | 8.0 | 0.00 | 0.20 | 0.20 | 80 | 1009.2 |
| 20260506222306 | 21 | 220 | 3.2 | 11.3 | 0.00 | 0.20 | 0.20 | 79 | 1009.0 |
| 20260506221304 | 21 | 162 | 4.8 | 12.9 | 0.00 | 0.20 | 0.20 | 79 | 1009.0 |
| 20260506214806 | 21 | 169 | 3.2 | 9.7 | 0.00 | 0.20 | 0.20 | 79 | 1009.0 |
| 20260506214305 | 21 | 169 | 3.2 | 11.3 | 0.00 | 0.20 | 0.20 | 79 | 1008.8 |
| 20260506213804 | 21 | 174 | 4.8 | 16.1 | 0.00 | 0.20 | 0.20 | 79 | 1008.9 |
| 20260506212805 | 21 | 208 | 3.2 | 14.5 | 0.00 | 0.20 | 0.20 | 79 | 1008.8 |
| 20260506212306 | 21 | 169 | 3.2 | 14.5 | 0.00 | 0.20 | 0.20 | 78 | 1008.7 |
| 20260506210805 | 20 | 216 | 1.6 | 8.0 | 0.00 | 0.20 | 0.20 | 79 | 1008.6 |
| 20260506205804 | 20 | 154 | 3.2 | 9.7 | 0.00 | 0.20 | 0.20 | 79 | 1008.4 |
| 20260506205306 | 20 | 172 | 4.8 | 12.9 | 0.00 | 0.20 | 0.20 | 79 | 1008.6 |
| 20260506204804 | 20 | 154 | 3.2 | 12.9 | 0.00 | 0.20 | 0.20 | 79 | 1008.4 |
| 20260506204305 | 20 | 215 | 3.2 | 12.9 | 0.00 | 0.20 | 0.20 | 79 | 1008.7 |
| 20260506203805 | 21 | 158 | 1.6 | 11.3 | 0.00 | 0.20 | 0.20 | 78 | 1008.5 |
| 20260506202804 | 21 | 178 | 4.8 | 14.5 | 0.00 | 0.20 | 0.20 | 77 | 1008.5 |
| 20260506201806 | 21 | 201 | 3.2 | 16.1 | 0.00 | 0.20 | 0.20 | 77 | 1008.4 |
| 20260506195805 | 21 | 201 | 4.8 | 19.3 | 0.00 | 0.20 | 0.20 | 77 | 1008.6 |
| 20260506194305 | 21 | 203 | 3.2 | 24.1 | 0.00 | 0.20 | 0.20 | 79 | 1008.5 |
| 20260506193805 | 20 | 197 | 11.3 | 24.1 | 0.03 | 0.20 | 0.20 | 77 | 1008.6 |
| 20260506193306 | 21 | 197 | 3.2 | 19.3 | 0.03 | 0.20 | 0.20 | 78 | 1008.6 |
| 20260506192806 | 21 | 196 | 6.4 | 22.5 | 0.03 | 0.20 | 0.20 | 78 | 1008.7 |
| 20260506191805 | 21 | 121 | 3.2 | 20.9 | 0.03 | 0.20 | 0.20 | 78 | 1008.8 |
| 20260506190304 | 20 | 204 | 8.0 | 19.3 | 0.03 | 0.20 | 0.20 | 81 | 1009.0 |
| 20260506185306 | 20 | 169 | 4.8 | 19.3 | 0.03 | 0.20 | 0.20 | 81 | 1009.1 |
| 20260506184804 | 20 | 216 | 4.8 | 32.2 | 0.03 | 0.20 | 0.20 | 82 | 1009.1 |
| 20260506184304 | 19 | 230 | 11.3 | 32.2 | 0.03 | 0.20 | 0.20 | 81 | 1009.1 |
| 20260506183304 | 19 | 185 | 9.7 | 20.9 | 0.00 | 0.18 | 0.18 | 83 | 1009.2 |
| 20260506182804 | 19 | 179 | 8.0 | 20.9 | 0.00 | 0.18 | 0.18 | 83 | 1009.2 |
| 20260506174304 | 17 | 201 | 4.8 | 19.3 | 0.00 | 0.18 | 0.18 | 88 | 1009.5 |
| 20260506173804 | 17 | 166 | 6.4 | 20.9 | 0.00 | 0.18 | 0.18 | 88 | 1009.5 |
| 20260506173305 | 17 | 171 | 11.3 | 20.9 | 0.00 | 0.18 | 0.18 | 89 | 1009.4 |
| 20260506172805 | 17 | 188 | 8.0 | 19.3 | 0.00 | 0.18 | 0.18 | 90 | 1009.5 |
| 20260506171305 | 17 | 191 | 4.8 | 20.9 | 0.00 | 0.18 | 0.18 | 91 | 1009.5 |
| 20260506165306 | 16 | 155 | 6.4 | 25.7 | 0.00 | 0.18 | 0.18 | 92 | 1009.6 |
| 20260506164805 | 16 | 201 | 6.4 | 25.7 | 0.00 | 0.18 | 0.18 | 92 | 1009.8 |
| 20260506164304 | 16 | 186 | 11.3 | 24.1 | 0.00 | 0.18 | 0.18 | 92 | 1009.6 |
| 20260506163304 | 16 | 179 | 6.4 | 24.1 | 0.00 | 0.18 | 0.18 | 93 | 1009.6 |
| 20260506162306 | 16 | 157 | 8.0 | 24.1 | 0.00 | 0.18 | 0.18 | 93 | 1009.9 |
| 20260506161805 | 16 | 196 | 8.0 | 24.1 | 0.00 | 0.18 | 0.18 | 93 | 1009.8 |
| 20260506155306 | 16 | 155 | 9.7 | 19.3 | 0.08 | 0.18 | 0.18 | 93 | 1010.0 |
| 20260506154305 | 16 | 169 | 8.0 | 19.3 | 0.08 | 0.18 | 0.18 | 94 | 1009.7 |
| 20260506153805 | 16 | 154 | 9.7 | 19.3 | 0.10 | 0.18 | 0.18 | 93 | 1010.1 |
| 20260506152804 | 16 | 162 | 9.7 | 19.3 | 0.10 | 0.18 | 0.18 | 93 | 1010.3 |
| 20260506150805 | 16 | 154 | 6.4 | 19.3 | 0.13 | 0.18 | 0.18 | 93 | 1010.5 |
| 20260506150305 | 16 | 165 | 8.0 | 19.3 | 0.10 | 0.15 | 0.15 | 92 | 1010.6 |
| 20260506145805 | 16 | 156 | 8.0 | 19.3 | 0.08 | 0.13 | 0.13 | 92 | 1010.7 |
| 20260506145306 | 16 | 155 | 6.4 | 19.3 | 0.05 | 0.10 | 0.10 | 92 | 1010.6 |
| 20260506142306 | 16 | 159 | 8.0 | 19.3 | 0.05 | 0.05 | 0.05 | 92 | 1010.5 |
| 20260506141305 | 16 | 157 | 6.4 | 19.3 | 0.05 | 0.05 | 0.05 | 91 | 1010.6 |
| 20260506133805 | 17 | 163 | 8.0 | 19.3 | 0.03 | 0.03 | 0.03 | 86 | 1010.8 |
| 20260506132805 | 17 | 155 | 6.4 | 19.3 | 0.03 | 0.03 | 0.03 | 85 | 1010.8 |
| 20260506131305 | 17 | 153 | 8.0 | 12.9 | 0.00 | 0.00 | 0.00 | 83 | 1010.6 |
| 20260506130806 | 17 | 153 | 4.8 | 19.3 | 0.00 | 0.00 | 0.00 | 83 | 1010.4 |
| 20260506124804 | 17 | 174 | 4.8 | 22.5 | 0.00 | 0.00 | 0.00 | 82 | 1010.5 |
| 20260506124305 | 17 | 166 | 4.8 | 22.5 | 0.00 | 0.00 | 0.00 | 81 | 1010.5 |
| 20260506123304 | 17 | 163 | 4.8 | 12.9 | 0.00 | 0.00 | 0.00 | 81 | 1010.8 |
| 20260506122804 | 17 | 164 | 6.4 | 16.1 | 0.00 | 0.00 | 0.00 | 80 | 1010.9 |
| 20260506122306 | 18 | 180 | 6.4 | 16.1 | 0.00 | 0.00 | 0.00 | 79 | 1011.0 |
| 20260506121804 | 18 | 167 | 6.4 | 16.1 | 0.00 | 0.00 | 0.00 | 79 | 1011.0 |
| 20260506121306 | 18 | 154 | 8.0 | 19.3 | 0.00 | 0.00 | 0.00 | 78 | 1011.0 |
| 20260506120804 | 18 | 167 | 9.7 | 19.3 | 0.00 | 0.00 | 0.00 | 77 | 1010.9 |
| 20260506120306 | 18 | 139 | 8.0 | 19.3 | 0.00 | 0.00 | 0.00 | 77 | 1010.9 |
| 20260506115805 | 18 | 183 | 4.8 | 14.5 | 0.00 | 0.00 | 0.00 | 77 | 1010.9 |
| 20260506114805 | 18 | 171 | 9.7 | 19.3 | 0.00 | 0.00 | 0.00 | 77 | 1010.7 |
| 20260506113804 | 18 | 148 | 9.7 | 14.5 | 0.00 | 0.00 | 0.00 | 77 | 1010.5 |
| 20260506112804 | 18 | 152 | 8.0 | 19.3 | 0.00 | 0.00 | 0.00 | 77 | 1010.4 |
| 20260506111804 | 18 | 167 | 8.0 | 22.5 | 0.00 | 0.00 | 0.00 | 77 | 1010.4 |
| 20260506111304 | 18 | 162 | 8.0 | 22.5 | 0.00 | 0.00 | 0.00 | 77 | 1010.4 |
| 20260506110805 | 18 | 193 | 6.4 | 22.5 | 0.00 | 0.00 | 0.00 | 77 | 1010.4 |
| 20260506104805 | 18 | 156 | 11.3 | 24.1 | 0.00 | 0.00 | 0.00 | 77 | 1010.1 |
| 20260506104305 | 18 | 169 | 11.3 | 24.1 | 0.00 | 0.00 | 0.00 | 77 | 1010.1 |
| 20260506102305 | 17 | 155 | 11.3 | 19.3 | 0.00 | 0.00 | 0.00 | 78 | 1010.0 |
| 20260506101305 | 17 | 153 | 8.0 | 19.3 | 0.00 | 0.00 | 0.00 | 78 | 1010.0 |
| 20260506100804 | 17 | 166 | 9.7 | 19.3 | 0.00 | 0.00 | 0.00 | 77 | 1010.1 |
| 20260506100305 | 18 | 148 | 6.4 | 19.3 | 0.00 | 0.00 | 0.00 | 77 | 1010.2 |
| 20260506095804 | 18 | 154 | 8.0 | 19.3 | 0.00 | 0.00 | 0.00 | 77 | 1010.1 |
| 20260506093304 | 18 | 147 | 6.4 | 19.3 | 0.00 | 0.00 | 0.00 | 76 | 1010.2 |
| 20260506091305 | 18 | 158 | 4.8 | 19.3 | 0.00 | 0.00 | 0.00 | 75 | 1010.1 |
| 20260506090805 | 18 | 161 | 8.0 | 19.3 | 0.00 | 0.00 | 0.00 | 74 | 1010.2 |
| 20260506084805 | 18 | 142 | 8.0 | 24.1 | 0.00 | 0.00 | 0.00 | 74 | 1010.4 |
| 20260506083304 | 18 | 162 | 6.4 | 14.5 | 0.00 | 0.00 | 0.00 | 72 | 1010.3 |
| 20260506082805 | 19 | 141 | 8.0 | 16.1 | 0.00 | 0.00 | 0.00 | 72 | 1010.3 |
| 20260506080805 | 19 | 172 | 8.0 | 19.3 | 0.00 | 0.00 | 0.00 | 70 | 1010.1 |
| 20260506080304 | 20 | 159 | 11.3 | 19.3 | 0.00 | 0.00 | 0.00 | 69 | 1010.2 |
| 20260506072306 | 20 | 178 | 8.0 | 16.1 | 0.00 | 0.00 | 0.00 | 66 | 1010.5 |
| 20260506070805 | 20 | 155 | 6.4 | 16.1 | 0.00 | 0.00 | 0.00 | 65 | 1010.5 |
| 20260506062306 | 21 | 163 | 6.4 | 19.3 | 0.00 | 0.00 | 0.00 | 62 | 1010.8 |
| 20260506061804 | 21 | 164 | 6.4 | 19.3 | 0.00 | 0.00 | 0.00 | 61 | 1010.8 |
| 20260506061306 | 21 | 162 | 9.7 | 19.3 | 0.00 | 0.00 | 0.00 | 61 | 1010.8 |
| 20260506060804 | 21 | 181 | 8.0 | 19.3 | 0.00 | 0.00 | 0.00 | 61 | 1010.8 |